Content
SEND FEEDBACK

Daily
Averages
Monthly
Summary
United States of America

OAKLAND, MARYLAND


Home > North America > United States > Maryland
Elevation: 2407 feet     Latitude: 39 24N     Longitude: 079 24W

WEATHER
 
SELECT A DAY
Number of Records: 194,716;   Date Range: 5/31/06 - 8/18/14
 
SHARE

PRINT THIS DATA

[ ← Previous Day ]
WEATHER ALMANAC - JANUARY 31, 2013
[ Next Day → ]
[ °C ]   °F
Weather ElementAverageHighLow
Temperature22.2 °F39.2 °F (12:45 am)17.6 °F (3:45 pm)
Dewpoint19.7 °F39.2 °F (12:45 am)8.6 °F (4:30 pm)
Humidity90.6 %100 % (12:45 am)68 % (4:30 pm)
Barometer29.56 in29.73 in (9:45 pm)29.24 in (1:10 am)
Wind Speed17.6 mph28.8 mph (1:15 pm)
Wind Gust47.2 mph (1:50 am)
Weather ElementAverage
Visibility4.7 mi
Wind DirectionWSW (263.8 °)

Weather ElementTotal
Precipitation---
Heating Degree Days36.6 (Base 65)
Averaged from 63 records on January 31, 2013
WEATHER CONDITIONS BREAKOUT
WIND DIRECTION BREAKOUT
WEATHER BY HOUR - JANUARY 31, 2013
[ °C ]   °F
Local TimeTemperatureDewpointHumidityBarometerVisibilityWind DirectionWind SpeedGust SpeedPrecipitationEventsConditions
12:45 AM39.2 °F39.2 °F100 %29.26 in7.0 miWSW (250°)18.4 mph27.6 mphOvercast
1:10 AM37.4 °F37.4 °F100 %29.24 in7.0 miWSW (250°)16.1 mph26.5 mphOvercast
1:50 AM35.6 °F35.6 °F100 %29.27 in4.0 miWest (260°)17.3 mph47.2 mphOvercast
2:10 AM32.0 °F32.0 °F100 %29.30 in3.0 miWest (260°)17.3 mph35.7 mphOvercast
2:35 AM32.0 °F32.0 °F100 %29.31 in2.5 miWest (270°)19.6 mph32.2 mphOvercast
3:00 AM32.0 °F32.0 °F100 %29.31 in1.2 miWest (260°)21.9 mph32.2 mphOvercast
3:20 AM32.0 °F32.0 °F100 %29.32 in1.0 miWest (270°)17.3 mph27.6 mphOvercast
3:45 AM28.4 °F28.4 °F100 %29.32 in0.8 miWest (280°)19.6 mph47.2 mphOvercast
4:05 AM28.4 °F28.4 °F100 %29.34 in1.5 miWest (270°)18.4 mph29.9 mphOvercast
4:25 AM28.4 °F28.4 °F100 %29.35 in1.8 miWest (270°)26.5 mph39.1 mphOvercast
4:45 AM28.4 °F28.4 °F100 %29.37 in7.0 miWest (260°)18.4 mph34.5 mphOvercast
5:10 AM26.6 °F26.6 °F100 %29.39 in5.0 miWest (270°)18.4 mph32.2 mphOvercast
5:30 AM26.6 °F26.6 °F100 %29.40 in5.0 miWest (260°)17.3 mph34.5 mphOvercast
5:50 AM26.6 °F24.8 °F93 %29.41 in7.0 miWest (260°)20.7 mph33.4 mphOvercast
6:10 AM24.8 °F24.8 °F100 %29.42 in5.0 miWSW (250°)20.7 mph32.2 mphOvercast
6:55 AM24.8 °F21.2 °F86 %29.46 in7.0 miWest (270°)15.0 mph33.4 mphOvercast
7:35 AM23.0 °F23.0 °F100 %29.48 in3.0 miWest (270°)15.0 mph28.8 mphOvercast
8:00 AM23.0 °F23.0 °F100 %29.49 in0.2 miWest (270°)15.0 mph31.1 mphFogLight Freezing Fog
8:20 AM23.0 °F21.2 °F93 %29.50 in2.5 miWest (270°)18.4 mph34.5 mphOvercast
8:40 AM23.0 °F21.2 °F93 %29.50 in7.0 miWest (270°)12.7 mph26.5 mphOvercast
9:00 AM23.0 °F21.2 °F93 %29.51 in3.0 miWest (270°)18.4 mph36.8 mphOvercast
9:25 AM21.2 °F21.2 °F100 %29.52 in0.8 miWest (270°)19.6 mph35.7 mphOvercast
9:45 AM23.0 °F21.2 °F93 %29.51 in5.0 miWest (270°)18.4 mph35.7 mphOvercast
10:05 AM21.2 °F21.2 °F100 %29.52 in1.2 miWest (280°)17.3 mph36.8 mphOvercast
10:25 AM21.2 °F21.2 °F100 %29.54 in2.5 miWest (270°)16.1 mph27.6 mphOvercast
10:50 AM23.0 °F19.4 °F86 %29.55 in10.0 miWest (260°)23.0 mph36.8 mphOvercast
11:10 AM21.2 °F17.6 °F86 %29.57 in4.0 miWest (260°)26.5 mph35.7 mphOvercast
11:30 AM21.2 °F17.6 °F86 %29.58 in4.0 miWest (270°)16.1 mph32.2 mphOvercast
11:50 AM21.2 °F15.8 °F80 %29.58 in3.0 miWest (270°)18.4 mph38.0 mphHaze
12:15 PM19.4 °F19.4 °F100 %29.59 in0.2 miWest (260°)17.3 mph29.9 mphFogLight Freezing Fog
12:35 PM21.2 °F17.6 °F86 %29.58 in3.0 miWest (270°)21.9 mph32.2 mphOvercast
12:55 PM21.2 °F19.4 °F93 %29.57 in0.5 miWest (260°)23.0 mph35.7 mphFogLight Freezing Fog
1:15 PM21.2 °F21.2 °F100 %29.58 in0.5 miWest (280°)28.8 mph41.4 mphFogLight Freezing Fog
1:40 PM19.4 °F19.4 °F100 %29.58 in0.5 miWest (280°)24.2 mph38.0 mphFogLight Freezing Fog
2:00 PM21.2 °F17.6 °F86 %29.59 in1.8 miWest (260°)17.3 mph38.0 mphOvercast
2:20 PM21.2 °F17.6 °F86 %29.59 in3.0 miWest (270°)19.6 mph29.9 mphHaze
2:40 PM21.2 °F17.6 °F86 %29.60 in2.0 miWest (270°)26.5 mph38.0 mphOvercast
3:05 PM21.2 °F19.4 °F93 %29.62 in0.5 miWest (270°)23.0 mph35.7 mphFogLight Freezing Fog
3:25 PM19.4 °F15.8 °F86 %29.63 in1.2 miWest (280°)17.3 mph35.7 mphOvercast
3:45 PM17.6 °F17.6 °F100 %29.65 in0.5 miWest (270°)15.0 mph34.5 mphFogLight Freezing Fog
4:05 PM17.6 °F12.2 °F79 %29.67 in5.0 miWest (270°)24.2 mph35.7 mphHaze
4:30 PM17.6 °F8.6 °F68 %29.68 in10.0 miWest (270°)16.1 mph27.6 mphOvercast
4:50 PM17.6 °F8.6 °F68 %29.69 in10.0 miWest (270°)12.7 mph26.5 mphOvercast
5:10 PM17.6 °F8.6 °F68 %29.69 in10.0 miWest (280°)12.7 mph24.2 mphOvercast
5:30 PM17.6 °F12.2 °F79 %29.70 in4.0 miWest (260°)12.7 mph28.8 mphHaze
5:55 PM17.6 °F10.4 °F73 %29.71 in7.0 miWest (260°)12.7 mph24.2 mphMostly Cloudy
6:15 PM17.6 °F10.4 °F73 %29.71 in10.0 miWest (260°)11.5 mph23.0 mphMostly Cloudy
6:35 PM17.6 °F10.4 °F73 %29.71 in10.0 miWest (260°)13.8 mph19.6 mphScattered Clouds
6:55 PM17.6 °F8.6 °F68 %29.71 in10.0 miWSW (250°)13.8 mph24.2 mphScattered Clouds
7:20 PM17.6 °F10.4 °F73 %29.71 in10.0 miWSW (250°)12.7 mph27.6 mphClear
7:40 PM17.6 °F10.4 °F73 %29.71 in10.0 miWSW (250°)17.3 mph25.3 mphClear
8:00 PM17.6 °F12.2 °F79 %29.71 in10.0 miWSW (250°)15.0 mph25.3 mphClear
8:20 PM17.6 °F12.2 °F79 %29.71 in10.0 miWest (260°)12.7 mph24.2 mphScattered Clouds
8:45 PM17.6 °F12.2 °F79 %29.71 in10.0 miWest (260°)12.7 mph23.0 mphOvercast
9:05 PM17.6 °F14.0 °F86 %29.72 in7.0 miWSW (250°)17.3 mph25.3 mphOvercast
9:25 PM17.6 °F14.0 °F86 %29.72 in10.0 miWSW (250°)15.0 mph28.8 mphMostly Cloudy
9:45 PM17.6 °F17.6 °F100 %29.73 in10.0 miWSW (250°)12.7 mph23.0 mphMostly Cloudy
10:10 PM17.6 °F17.6 °F100 %29.72 in1.8 miWSW (250°)11.5 mph18.4 mphOvercast
10:30 PM17.6 °F17.6 °F100 %29.71 in1.0 miWSW (250°)13.8 mph24.2 mphOvercast
10:50 PM17.6 °F17.6 °F100 %29.71 in1.5 miWSW (250°)19.6 mph32.2 mphOvercast
11:10 PM17.6 °F17.6 °F100 %29.71 in7.0 miWest (260°)17.3 mph21.9 mphOvercast
11:35 PM17.6 °F17.6 °F100 %29.70 in2.5 miWest (260°)13.8 mph25.3 mphOvercast
11:55 PM17.6 °F17.6 °F100 %29.69 in2.0 miWest (270°)12.7 mph20.7 mphOvercast
Hourly data recorded from K2G4, located miles away from Oakland, Maryland







STORIES FROM OUR PARTNERS